Regional Weather Roundup
Issued by NWS Charleston, SC

Current Version | Previous Version | Text Only | Print | Product List | Glossary On
Versions: 1 2 3 4 5 6 7 8 9 10 11 12 13 14 15 16 17 18 19 20 21 22 23 24 25 26 27 28 29 30 31 32 33 34 35 36 37 38 39 40 41 42 43 44 45 46 47 48 49 50
000 ASUS42 KCHS 291526 RWRCHS REGIONAL WEATHER ROUNDUP NATIONAL WEATHER SERVICE CHARLESTON SC 1100 AM EDT SUN MAR 29 2015 NOTE: "FAIR" INDICATES FEW OR NO CLOUDS BELOW 12,000 FEET WITH NO SIGNIFICANT WEATHER AND/OR OBSTRUCTIONS TO VISIBILITY. NOT ALL STATIONS ARE QUALITY CONTROLLED BY THE NATIONAL WEATHER SERVICE. USE DATA WITH CAUTION...ESPECIALLY DEWPOINT OBSERVATIONS. SCZ027-030-031-034>040-042>050-291600- ...SOUTHEAST SOUTH CAROLINA... CITY SKY/WX TMP DP RH WIND PRES REMARKS N CHARLESTON SUNNY 47 14 26 NE10G20 30.46S WATERFRONT PRK N/A 43 N/A N/A N15 N/A MOUNT PLEASANT FAIR 46 16 29 N3 30.46S PINOPOLIS N/A 43 16 33 NE10 30.39R MONCKS CORNER FAIR 46 16 29 NE6G16 30.47S SUMMERVILLE FAIR 45 19 36 N10G20 30.47S BEAUFORT MCAS SUNNY 48 19 31 NE8 30.46R BEAUFORT ARPT FAIR 46 25 42 NE10 30.45S HILTON HEAD IS SUNNY 50 23 34 N9 30.45R WALTERBORO SUNNY 46 12 25 E8 30.47R ALLENDALE FAIR 48 18 29 VRB7 30.46R ...SOUTHERN MIDLANDS AND PEE DEE... CITY SKY/WX TMP DP RH WIND PRES REMARKS GEORGETOWN NOT AVBL KINGSTREE NOT AVBL ORANGEBURG SUNNY 45 14 28 NE9 30.47R BARNWELL FAIR 48 18 29 NE9 30.47R AIKEN FAIR 43 14 31 E8 30.47F MANNING HVY RAIN 43 10 26 N10 30.47S COLUMBIA SUNNY 44 11 26 NE8 30.47R SUMTER SUNNY 43 11 28 NE14 30.46R FLORENCE SUNNY 43 12 28 N10 30.47R MYRTLE BEACH SUNNY 41 12 30 N10 30.48S N MYRTLE BEACH SUNNY 42 13 30 NE10 30.45S $$ GAZ063-065-086>088-099>101-113>116-118-119-134>141-150-291600- ...SOUTHEAST GEORGIA... CITY SKY/WX TMP DP RH WIND PRES REMARKS SAVANNAH ARPT SUNNY 50 17 27 E10 30.45R HUNTER AAF SUNNY 50 20 30 NE8G20 30.42R FORT STEWART SUNNY 50 24 36 E6 30.42R STATESBORO SUNNY 49 22 34 E7 30.46R SYLVANIA SUNNY 47 23 38 E6 30.47R CLAXTON FAIR 50 27 40 E6 30.45R ...CSRA...CENTRAL AND FAR SOUTHEAST GEORGIA... CITY SKY/WX TMP DP RH WIND PRES REMARKS THOMSON SUNNY 47 22 37 CALM 30.50S AUGUSTA-BUSH SUNNY 46 15 28 E7 30.47R AUGUSTA-DANIEL SUNNY 45 14 28 SE6 30.46R SWAINSBORO FAIR 50 -4 10 E8 30.45S VIDALIA SUNNY 50 25 37 E9 30.44R EASTMAN FAIR 52 25 35 SE5 30.47R HAZLEHURST FAIR 52 23 32 E9 30.43R ALMA MOSUNNY 51 27 39 VRB6 30.43R WAYCROSS SUNNY 55 33 43 E5 30.44R JESUP FAIR 54 34 47 NE7 30.43R BAXLEY FAIR 52 25 35 NE7 30.43R BRUNSWICK SUNNY 55 36 47 N13G18 30.43R SAINT SIMONS MOSUNNY 54 39 57 NE16G24 30.41R $$ SCZ027-028-034-036>038-045-046-048>050-GAZ119-141-291600- ...LAKE AND SUPPLEMENTAL COASTAL OBSERVATIONS... STATION/POSITION TIME TEMP WIND PRES WAVE SWELL AIR SEA DIR/SP/G HT/PER HT/PER/DIR (UTC) (F) (DEG/KT/KT) (MB) (FT/S) (FT/S/D) UPR LAKE MARION NOT AVBL WINYAH BAY 1445 41 40/ 6 1030.0R LAKE MURRAY 1500 41 80/ 6/ 8 1030.8S ACE BASIN NERRS 1400 44 40/ 7 1030.0R FORT PULASKI 1406 45 60 40/ 14/ 17 1031.0R SAPELO ISLAND 1500 53 20/ 17 1030.0R $$ ANZ835-935-AMZ111-154-330-350-352-354-370-450-454-472-291600- ...C-MAN AND BUOY OBSERVATIONS... STATION/POSITION TIME TEMP WIND PRES WAVE SWELL AIR SEA DIR/SP/G HT/PER HT/PER/DIR (UTC) (F) (DEG/KT/KT) (MB) (FT/S) (FT/S/D) BUOY 41004 1450 47 67 30/ 19/ 25 1030.1R 6/ 6 2/14 BUOY 41008 1450 52 60 40/ 19/ 23 1029.3R 6/ 6 FOLLY BEACH CMAN 1500 42 40/ 15/ 17 1031.4R CAPERS NEARSHORE NOT AVBL FRIPP NEARSHORE 1400 45 50/ 19/ 21 1029.4R STATION/POSITION TIME TEMP WIND PRES WAVE SWELL AIR SEA DIR/SP/G HT/PER HT/PER/DIR (UTC) (F) (DEG/KT/KT) (MB) (FT/S) (FT/S/D) 5E ST. MARYS GA 1421 60 N/A 3/11 FRYING PAN BUOY 1450 41 64 20/ 16/ 19 1031.3R 5/ 6 2/120/ 8 BUOY 41025 NOT AVBL CAPE LOOKOUT NC 1500 38 350/ 16/ 18 1029.9R BUOY 41002 1450 56 68 330/ 25/ 31 1025.9R 10/ 7 BUOY 41010 1420 65 76 330/ 16/ 19 1026.1R ST AUGUSTINE FL 1500 55 60 360/ 13/ 15 1030.0R $$

USA.gov is the U.S. government's official web portal to all federal, state and local government web resources and services.